IRS-1C Rocket - Orbit

View from above orbital plane
View from above orbital plane
View from above satellite
View from above satellite

Ground track
Ground track

The orbit data is extracted from the following two-line orbital elements,

1 23753U 95072C   13145.85213944  .00000098  00000-0  59595-4 0  3980
2 23753 098.7052 090.8647 0002939 223.9273 194.5063 14.26203006905981
Epoch (UTC): 25 May 2013 20:27:04
Eccentricity: 0.0002939
inclination: 98.7052°
perigee height: 802 km
apogee height: 806 km
right ascension of ascending node: 90.8647°
argument of perigee: 223.9273°
revolutions per day: 14.26203006
mean anomaly at epoch: 194.5063°
orbit number at epoch: 90598

The dashed part of the orbit path shows where the satellite is in the earth's shadow,  

Developed and maintained by Chris Peat, Heavens-Above GmbH. Please read the updated FAQ before sending e-mail. Imprint. DLR